Location: Unspecified
(43.1763°N, 79.4719°W)
Time: 04:37:36
(UTC-04:00)

Cosmos 2058 - Visible Passes

Search period start: 21 October 2017 00:00
Search period end: 31 October 2017 00:00
Orbit: 564 x 584 km, 82.5° (Epoch: 21 October)

Date Brightness Start Highest point End Pass type
(mag) Time Alt. Az. Time Alt. Az. Time Alt. Az.
21 Oct 5.2 19:51:54 10° NNW 19:55:28 28° W 19:58:59 10° SSW visible
22 Oct 6.5 06:42:23 10° ESE 06:43:55 12° E 06:45:29 10° ENE visible
22 Oct 5.7 19:55:30 10° NW 19:58:39 21° W 20:01:47 10° SW visible
23 Oct 6.2 06:44:35 10° ESE 06:47:05 16° E 06:49:37 10° NE visible
23 Oct 6.1 19:59:15 10° NW 20:01:50 16° W 20:04:25 10° SW visible
24 Oct 6.0 06:47:09 10° SE 06:50:16 20° E 06:53:23 10° NE visible
24 Oct 6.4 20:03:18 10° WNW 20:04:59 12° W 20:06:41 10° WSW visible
25 Oct 5.5 06:49:57 10° SSE 06:53:28 26° E 06:57:01 10° NNE visible
26 Oct 4.9 06:52:51 10° SSE 06:56:41 35° E 07:00:31 10° NNE visible
27 Oct 4.2 06:55:53 10° SSE 06:59:54 46° E 07:03:57 10° NNE visible
28 Oct 3.5 06:59:00 10° S 07:03:09 62° E 07:07:20 10° NNE visible
28 Oct 4.3 18:37:43 10° NNW 18:41:41 45° W 18:45:37 10° SSW visible
29 Oct 3.0 07:02:12 10° S 07:06:25 84° E 07:10:39 10° N visible
29 Oct 4.9 18:41:09 10° NNW 18:44:55 34° W 18:48:38 10° SSW visible
30 Oct 2.9 07:05:31 10° SSW 07:09:42 73° W 07:13:56 10° N visible
30 Oct 5.5 18:44:40 10° NNW 18:48:07 26° W 18:51:32 10° SW visible
